Regional Weather Roundup
Issued by NWS Kansas City/Pleasant Hill, MO

Home | Current Version | Previous Version | Graphics & Text | Print | Product List | Glossary Off
Versions: 1 2 3 4 5 6 7 8 9 10 11 12 13 14 15 16 17 18 19 20 21 22 23 24 25 26 27 28 29 30 31 32 33 34 35 36 37 38 39 40 41 42 43 44 45 46 47 48 49 50

673
ASUS43 KEAX 171810
RWREAX

WEATHER ROUNDUP FOR EASTERN KANSAS AND NORTHWEST MISSOURI
NATIONAL WEATHER SERVICE KANSAS CITY/PLEASANT HILL MO
1200 PM CST SUN DEC 17 2017

KSZ040-057-103>105-MOZ028-029-037-043-171900-
...KANSAS CITY METROPOLITAN AREA...

CITY           SKY/WX    TMP DP  RH WIND       PRES   REMARKS
K.C. INTL      CLOUDY    45  44  97 W6        29.99F
6HR MIN TEMP:  42; 6HR MAX TEMP:  45; 6HR PCP:  0.07;

K.C. DOWNTOWN  CLOUDY    48  43  82 SW7       29.99F
6HR MIN TEMP:  44; 6HR MAX TEMP:  48; 6HR PCP:  0.05;

LEES SUMMIT    CLOUDY    45  45 100 SW7       30.01F
6HR MIN TEMP:  43; 6HR MAX TEMP:  45; 6HR PCP:  0.15;

OLATHE - IXD   CLOUDY    46  43  89 SW8       30.01F
6HR MIN TEMP:  42; 6HR MAX TEMP:  46; 6HR PCP:  0.15;

OLATHE - OJC   CLOUDY    45  43  93 W7        30.00F
6HR MIN TEMP:  41; 6HR MAX TEMP:  45; 6HR PCP:  0.14;

LAWRENCE       CLOUDY    48  45  89 SW8       30.00F

$$

MOZ001>008-011>017-020>025-030>033-038>040-044>046-053-054-171900-
...NORTHERN AND CENTRAL MISSOURI...

CITY           SKY/WX    TMP DP  RH WIND       PRES   REMARKS
ST. JOSEPH     CLOUDY    46  46 100 S6        29.99F
6HR MIN TEMP:  40; 6HR MAX TEMP:  46; 6HR PCP:  0.09;

MOSBY          CLOUDY    45  43  93 W6        30.00F
WARRENSBURG    CLOUDY    43  41  93 S9        30.02F
WHITEMAN AFB   CLOUDY    44  42  92 SW12      29.98F
6HR MIN TEMP:  42; 6HR MAX TEMP:  44; 6HR PCP:  0.13;

CLINTON        CLOUDY    45  45 100 SW6       30.04F FOG
SEDALIA        CLOUDY    46  45  96 S8        30.04F
6HR MIN TEMP:  43; 6HR MAX TEMP:  46; 6HR PCP:  0.07;

WARSAW         NOT AVBL
CHILLICOTHE      N/A     46  43  89 SW3       30.01F
6HR MIN TEMP:  42; 6HR MAX TEMP:  47; 6HR PCP:  0.02;

KIRKSVILLE     CLOUDY    45  45 100 SW10      30.01F
6HR MIN TEMP:  43; 6HR MAX TEMP:  46; 6HR PCP:  0.01;


$$

MOZ041-047>049-056>058-063>065-088>090-097-171900-
...EASTERN AND SOUTHERN MISSOURI...

CITY           SKY/WX    TMP DP  RH WIND       PRES   REMARKS
ST. LOUIS INTL CLOUDY    51  34  52 CALM      30.06F
6HR MIN TEMP:  45; 6HR MAX TEMP:  51; 6HR PCP: TRACE;

SPIRIT OF STL  CLOUDY    52  34  50 W6        30.05F
COLUMBIA       CLOUDY    47  44  90 S10       30.03F
JEFFERSON CITY CLOUDY    48  41  76 SW5       30.05F
ROLLA          CLOUDY    45  41  86 S9        30.05F
OSAGE BEACH    LGT RAIN  43  43 100 S7        30.06F FOG
SPRINGFIELD    CLOUDY    46  45  96 SW8       30.04F FOG
BRANSON        FOG       45  45 100 CALM      30.07F VSB 1
JOPLIN         CLOUDY    45  45 100 SW9       30.06F
WEST PLAINS    CLOUDY    43  42  97 S6        30.07F

$$

IAZ060-094-KSZ022-034>040-054-083-096-NEZ052-066-093-171900-
...KANSAS...SOUTHEAST NEBRASKA AND IOWA...

CITY           SKY/WX    TMP DP  RH WIND       PRES   REMARKS
TOPEKA         CLOUDY    48  46  93 W6        29.99F
6HR MIN TEMP:  43; 6HR MAX TEMP:  48; 6HR PCP:  0.07;

MANHATTAN      PTSUNNY   49  42  77 W9        29.99F
EMPORIA        MOSUNNY   49  41  74 W7        29.98F
CHANUTE        CLOUDY    47  45  93 S6        30.02F
WICHITA        PTSUNNY   47  40  76 CALM      29.99F
OMAHA          CLOUDY    34  27  75 N8        30.03F WCI  27
LINCOLN        MOSUNNY   35  30  82 N6        30.02F WCI  30
FALLS CITY     CLOUDY    38  36  92 N9        30.00F WCI  31
LAMONI         CLOUDY    44  42  93 W8        29.98F
DES MOINES     LGT RAIN  34  28  79 NW3       30.02S

$$





USA.gov is the U.S. government's official web portal to all federal, state and local government web resources and services.